Regional Weather Roundup
Issued by NWS

Home | Current Version | Previous Version | Text Only | Print | Product List | Glossary Off
Versions: 1 2 3 4 5 6 7 8 9 10 11 12 13 14 15 16 17 18 19 20 21 22 23 24 25 26 27 28 29 30 31 32 33 34 35 36 37 38 39 40 41 42 43 44 45 46 47 48 49 50

000
ASUS45 KCYS 312110
RWRWY

WYOMING REGIONAL WEATHER ROUNDUP
NATIONAL WEATHER SERVICE CHEYENNE WY
300 PM MDT FRI JUL 31 2015

NOTE:  "FAIR" INDICATES FEW OR NO CLOUDS BELOW 12,000 FEET
WITH NO SIGNIFICANT WEATHER AND/OR OBSTRUCTIONS TO VISIBILITY.

WYZ001-312200-
YELLOWSTONE NATIONAL PARK

CITY           SKY/WX    TMP DP  RH WIND       PRES   REMARKS
LK YELLOWSTONE   N/A     71  34  25 VRB5      30.48F
W YELLOWSTONE  NOT AVBL

$$
WYZ002>013-054>058-071-098>099-312200-
NORTHERN WYOMING

CITY           SKY/WX    TMP DP  RH WIND       PRES   REMARKS
JACKSON        SUNNY     81  30  16 CALM      30.36F
CODY           FAIR      88  37  16 E7        30.22F
GREYBULL       FAIR      94  24   8 VRB5      30.14F
WORLAND        FAIR      93  29  10 VRB5      30.15F
SHERIDAN       FAIR      92  35  13 NW6       30.15F
BUFFALO        FAIR      90  37  15 VRB7      30.23F
GILLETTE       FAIR      89  39  17 VRB5      30.18F
HULETT         FAIR      86  46  25 NE9       30.21F
NEWCASTLE      FAIR      90  34  13 MISG      30.20F

$$
WYZ014>020-022>026-101>103-312200-
CENTRAL WYOMING

CITY           SKY/WX    TMP DP  RH WIND       PRES   REMARKS
BIG PINEY      FAIR      82  27  13 W8        30.38F
PINEDALE       FAIR      81  18   9 S10       30.39F
DUBOIS         FAIR      79  23  12 W5        30.36F
LANDER         FAIR      89  34  14 VRB6      30.22F
RIVERTON       FAIR      88  30  12 SE5       30.24F
CASPER         FAIR      90  25   9 VRB5G17   30.23F
DOUGLAS        FAIR      94  31  10 NW10      30.22F

$$
WYZ021-027>030-104>119-312200-
SOUTHERN WYOMING

CITY           SKY/WX    TMP DP  RH WIND       PRES   REMARKS
EVANSTON       FAIR      83  15   8 VRB7      30.39F
KEMMERER       FAIR      82  19   9 W16       30.41F
FORT BRIDGER   CLEAR     86  21   9 NW10G18   30.40F
ROCK SPRINGS   FAIR      85  20   9 W15G21    30.34F
DIXON          FAIR      89  23   9 W9        30.33F
RAWLINS        FAIR      87  21   9 VRB6      30.34F
SARATOGA       FAIR      86  21   9 N6        30.37F
LARAMIE        FAIR      81  47  30 E17G25    30.38F
CHEYENNE       FAIR      72  55  55 E8        30.33F
TORRINGTON     FAIR      88  49  25 S22G29    30.19F
PINE BLUFFS    CLOUDY    73  46  38 N10G25    30.30R

$$


USA.gov is the U.S. government's official web portal to all federal, state and local government web resources and services.